STARLINK-33793, 64165

Orbit data source: Space-Track

STARLINK-33793, 64165 is a payload satellite owned by SpaceX/Seattle (US) in SSO that was launched on Tue, 27 May 2025 UTC via an FALCON 9 launch vehicle from the Air Force Western Test Range (AFWTR). Payload-class satellites include a variety of spacecraft equipped with specific instruments for various scientific and technological missions. These include communications satellites like Starlink; space stations such as the ISS; scientific satellites like the Hubble; Earth observation satellites from companies like Planet Labs, Umbra, and HawkEye 360; GPS; miniature CubeSats for education and research; and military/defense satellites.

Loading next visibility...
Identifier
64165, 2025-112V
Orbit
SSO
Country
Flag of USUS
Related business
Manufacturer
SpaceX/Seattle
Mission
Operational Commercial Communications
Bus & Motor
STARLINK V2MO, Unknown motor
Mass
575 kg wet, ~530 kg dry
Launch date (UTC)
2025-05-27 (1 year ago)
Launch vehicle
FALCON 9
Launch site
Air Force Western Test Range (AFWTR)
Object type
Payload
Rocket body
Debris
Shape & HBR
Box + 1 Pan, 17.7 m
Radar Cross Section
41.120 m², Large (>1 m²)

Expand to show TLE details & history
Last TLE update: 1 day ago

TLE from 1 day ago
0 STARLINK-33793
1 64165U 25112V   26235.85352400  .00008781  00000-0  27401-3 0  9999
2 64165  97.2841 283.3595 0001476  94.4880 265.6532 15.33443800 68511
Epoch: 2026-08-23T20:29Z
TLE epoch observation values (Epoch: 2026-08-23T20:29:04.473Z)
Latitude
0.00003°
Longitude
3.94724°
Altitude
468.735 km
Speed
7.632 km/s
True Right ascension
18h 53m 26s
True Declination
0° 00' 00"
Sunlit
Object was in full shadow at epoch
Visualization orbit readout
Latitude
Unknown
Longitude
Unknown
Altitude
Unknown
Speed
Unknown
Apparent Right ascension
Unknown
Apparent Declination
Unknown
Sunlit
N/A
Visualization observer readout
Local Sidereal Time
18:45:26
Azimuth
Unknown
Elevation
Unknown
Doppler factor
Unknown
Orbital elements
Apogee altitude
463.499 km
Perigee altitude
461.48 km
Semi-major axis
6,840.626 km
Eccentricity
0.00015
Inclination
97.2841°
RAAN
283.3595°
Arg. of periapsis
94.488°
True anomaly
265.63634°
Mean anomaly
265.6532°
Eccentric anomaly
265.64477°
Mean motion
3.83618 °/min
Orbital period
93.84 mins
BSTAR
0.00027401
Loading maneuver chart data...
Computing Atmospheric mass density...
Loading historical data...
Loading historical data...
Loading historical data...
Loading historical data...
Loading historical data...
Loading historical data...
Loading historical data...

Documentation

Showing up to 5 results
|